FW8347 Weather Reports


time (UTC)temp
C
wind
direction
speed
KPH
gust
KPH
rain 1hr
cm
rain 24hr
cm
rain mn
cm
humidity
%
barometer
mb
20260902140052 20 140 11.3 17.7 0.00 0.00 0.00 95 1016.0
20260902134554 20 355 6.4 12.9 0.00 0.00 0.00 95 1017.1
20260902133055 21 29 4.8 16.1 0.00 0.00 0.00 95 1016.5
20260902131549 21 340 4.8 12.9 0.00 0.00 0.00 96 1017.3
20260902130053 21 105 3.2 12.9 0.00 0.00 0.00 96 1016.1
20260902124553 21 95 4.8 12.9 0.00 0.00 0.00 96 1015.9
20260902123058 21 121 0.0 9.7 0.00 0.00 0.00 96 1016.2
20260902121549 21 103 6.4 12.9 0.00 0.00 0.00 96 1015.3
20260902120054 21 29 1.6 11.3 0.00 0.00 0.00 96 1015.8
20260902114548 21 157 9.7 19.3 0.00 0.00 0.00 96 1014.9
20260902113045 21 169 12.9 24.1 0.00 0.00 0.00 96 1014.5
20260902111553 21 184 12.9 25.7 0.00 0.00 0.00 96 1013.8
20260902110046 20 169 16.1 29.0 0.00 0.00 0.00 96 1014.0
20260902104545 20 172 14.5 22.5 0.00 0.00 0.00 96 1013.9
20260902103051 20 157 12.9 24.1 0.00 0.00 0.00 96 1013.9
20260902101548 20 164 14.5 24.1 0.00 0.00 0.00 96 1014.1
20260902100057 20 172 8.0 14.5 0.00 0.00 0.00 96 1014.3
20260902094557 20 161 6.4 14.5 0.00 0.00 0.00 96 1014.6
20260902093047 20 150 4.8 9.7 0.00 0.00 0.00 96 1014.7
20260902091557 20 0 0.0 0.0 0.00 0.00 0.00 96 1014.9
20260902090052 20 0 0.0 3.2 0.00 0.00 0.00 96 1015.1
20260902084603 20 149 3.2 9.7 0.00 0.00 0.00 96 1015.0
20260902083050 20 85 0.0 4.8 0.00 0.00 0.00 96 1015.3
20260902081554 19 0 0.0 4.8 0.00 0.00 0.00 96 1015.7
20260902080058 19 84 1.6 4.8 0.00 0.00 0.00 96 1015.4
20260902074608 19 84 1.6 4.8 0.00 0.00 0.00 96 1015.6
20260902073051 18 0 0.0 0.0 0.00 0.00 0.00 95 1015.7
20260902071551 19 0 0.0 0.0 0.00 0.00 0.00 95 1015.6
20260902064547 19 0 0.0 0.0 0.00 0.00 0.00 95 1015.5
20260902063112 18 0 0.0 0.0 0.00 0.00 0.00 95 1015.6
20260902061553 18 0 0.0 0.0 0.00 0.00 0.00 95 1015.5
20260902060106 19 0 0.0 0.0 0.00 0.00 0.00 95 1015.6
20260902054604 18 0 0.0 0.0 0.00 0.00 0.00 95 1015.6
20260902053055 19 0 0.0 0.0 0.00 0.00 0.00 95 1015.8
20260902051558 19 0 0.0 0.0 0.00 0.00 0.00 95 1015.7
20260902050050 19 0 0.0 0.0 0.00 0.00 0.00 95 1015.7
20260902044547 19 0 0.0 0.0 0.00 0.00 0.00 94 1015.9
20260902043105 19 0 0.0 0.0 0.00 0.00 0.00 94 1015.9
20260902041604 20 0 0.0 0.0 0.00 0.00 0.00 94 1015.7
20260902040050 20 0 0.0 0.0 0.00 0.00 0.00 94 1015.8
20260902034600 20 0 0.0 0.0 0.00 0.00 0.00 94 1015.6
20260902033051 20 0 0.0 4.8 0.00 0.00 0.00 94 1015.7
20260902031559 20 0 0.0 0.0 0.00 0.00 0.00 94 1015.6
20260902030051 20 0 1.6 4.8 0.00 0.00 0.00 94 1015.6
20260902024549 20 84 1.6 4.8 0.00 0.00 0.00 94 1015.7
20260902023054 20 84 1.6 4.8 0.00 0.00 0.00 93 1015.6
20260902021557 21 84 0.0 3.2 0.00 0.00 0.00 93 1015.8
20260902020053 21 0 0.0 3.2 0.00 0.00 0.00 93 1015.8
20260902014555 21 84 1.6 4.8 0.00 0.00 0.00 94 1015.9
20260902013054 21 84 1.6 9.7 0.00 0.00 0.00 94 1015.8
20260902011545 21 69 3.2 8.0 0.00 0.00 0.00 94 1016.0
20260902010055 21 61 4.8 9.7 0.00 0.00 0.00 93 1015.7
20260902004558 21 53 3.2 6.4 0.00 0.00 0.00 93 1015.5
20260902003126 21 44 3.2 9.7 0.00 0.00 0.00 93 1015.1
20260902001554 21 61 3.2 12.9 0.00 0.00 0.00 92 1014.8
20260902000100 21 41 3.2 9.7 0.00 0.00 0.00 91 1014.6
20260901234550 22 0 0.0 0.0 0.00 0.00 0.00 90 1014.7
20260901233050 22 0 0.0 0.0 0.00 0.00 0.00 90 1014.7
20260901231557 22 0 0.0 0.0 0.00 0.00 0.00 89 1014.7
20260901230054 22 0 0.0 3.2 0.00 0.00 0.00 89 1014.8
20260901224555 22 0 0.0 3.2 0.00 0.00 0.00 89 1014.8
20260901223050 22 70 0.0 3.2 0.00 0.00 0.00 89 1014.7
20260901221616 22 70 3.2 8.0 0.00 0.00 0.00 89 1014.6
20260901220057 22 44 3.2 9.7 0.00 0.00 0.00 89 1014.7
20260901214554 22 50 1.6 6.4 0.00 0.00 0.00 88 1014.7
20260901213054 23 47 0.0 4.8 0.00 0.00 0.00 88 1014.6
20260901211557 23 47 0.0 6.4 0.00 0.00 0.00 87 1014.6
20260901210129 23 50 3.2 6.4 0.00 0.00 0.00 86 1014.4
20260901204555 23 50 0.0 4.8 0.00 0.00 0.00 85 1014.6
20260901203051 24 0 0.0 3.2 0.00 0.00 0.00 83 1014.7
20260901201549 24 0 0.0 3.2 0.00 0.00 0.00 83 1014.7
20260901200057 24 50 1.6 4.8 0.00 0.00 0.00 82 1014.7
20260901194603 25 50 1.6 6.4 0.00 0.00 0.00 82 1014.7
20260901193106 25 51 3.2 9.7 0.00 0.00 0.00 81 1014.8
20260901191602 25 37 3.2 6.4 0.00 0.00 0.00 82 1014.7
20260901190120 25 23 4.8 8.0 0.00 0.00 0.00 80 1014.5
20260901184553 26 31 3.2 9.7 0.00 0.00 0.00 79 1014.6
20260901183053 26 55 9.7 14.5 0.00 0.00 0.00 78 1014.6
20260901181547 27 355 8.0 12.9 0.00 0.00 0.00 73 1014.5
20260901180057 29 24 3.2 14.5 0.00 0.00 0.00 72 1014.5
20260901174557 30 13 4.8 12.9 0.00 0.00 0.00 71 1014.3
20260901173051 29 0 1.6 6.4 0.00 0.00 0.00 74 1014.3
20260901171632 28 0 1.6 6.4 0.00 0.00 0.00 75 1014.1
20260901170105 28 350 3.2 8.0 0.00 0.00 0.00 74 1014.0
20260901164610 27 349 3.2 8.0 0.00 0.00 0.00 77 1014.0
20260901163108 27 345 3.2 8.0 0.00 0.00 0.00 80 1014.0
20260901161601 26 345 3.2 14.5 0.00 0.00 0.00 81 1013.8
20260901160057 26 350 9.7 16.1 0.00 0.00 0.00 82 1013.7
20260901154556 26 10 9.7 16.1 0.00 0.03 0.00 81 1013.7
20260901153058 25 346 4.8 12.9 0.00 0.03 0.00 84 1013.6
20260901151600 25 324 6.4 12.9 0.00 0.03 0.00 84 1013.4
20260901150058 25 325 8.0 9.7 0.00 0.03 0.00 84 1013.3
20260901144558 24 273 3.2 12.9 0.00 0.03 0.00 86 1013.1
20260901143058 24 244 4.8 14.5 0.00 0.03 0.00 87 1013.1
20260901141551 23 247 6.4 12.9 0.00 0.03 0.00 89 1013.1